Wind_Speed
19 19 19 19 19 19 18 19 18 18 18 18 17 16 16 15 15 15 15 16 15 15 14 14 13 13 13 13 13 13 13 13 13 13 13 13 13 13 13 14 14 14 15
20 20 20 20 20 20 20 19 20 19 19 19 18 18 17 17 17 17 17 17 17 16 16 15 14 14 14 14 14 14 14 14 13 13 14 14 14 14 15 15 15 15 15
21 21 21 21 21 21 21 21 21 21 21 20 20 20 19 19 19 19 19 19 18 18 17 17 16 16 16 15 15 15 15 15 15 14 14 15 15 16 16 16 16 16 16
22 22 22 22 22 23 22 22 22 22 21 21 21 21 20 20 20 20 20 20 19 19 18 18 17 17 17 17 17 17 17 17 16 16 16 16 16 17 17 17 18 17 17
24 23 23 23 24 23 23 23 22 22 22 21 22 21 21 21 21 21 20 20 20 19 19 19 19 19 18 18 18 18 18 18 18 18 18 18 18 19 18 18 18 17 18
24 24 24 24 24 24 24 24 23 23 23 22 22 22 22 22 21 21 21 21 20 20 20 20 20 21 20 20 20 20 19 19 19 19 19 19 19 20 19 19 19 19 19
25 25 25 26 25 25 25 24 24 24 24 23 23 23 23 23 22 22 22 22 22 22 22 22 22 22 22 22 22 21 21 21 21 21 21 20 20 21 20 20 20 20 21
26 26 26 26 26 25 25 25 24 24 24 24 24 24 23 23 23 23 24 24 24 23 23 23 23 23 24 24 22 22 22 22 23 22 22 22 22 22 21 21 21 21 21
27 27 27 27 26 25 25 25 25 25 25 24 24 24 24 24 24 24 25 25 25 25 24 24 25 25 25 25 24 23 23 23 24 24 23 23 23 22 22 22 22 22 22
27 27 27 26 26 26 26 26 26 25 25 25 25 25 25 24 24 25 26 26 26 26 25 25 26 26 26 26 26 25 24 24 25 25 24 24 24 23 23 23 23 23 23
28 28 27 26 26 26 26 26 26 26 26 25 25 25 26 25 26 26 27 27 27 26 26 26 27 27 26 26 26 25 25 25 25 26 26 25 25 24 24 24 24 24 24
28 27 27 27 26 26 26 26 26 26 26 26 26 26 26 27 27 27 27 27 27 27 27 27 27 27 26 26 26 26 26 26 26 26 26 26 25 25 25 25 25 25 25
28 28 27 27 26 26 26 26 26 26 26 26 26 26 26 26 27 27 26 26 26 27 26 26 27 27 27 27 27 27 27 27 27 27 27 26 26 26 26 27 27 27 26
29 28 27 27 26 26 26 26 26 26 26 26 26 26 26 26 26 27 26 26 26 26 26 26 26 26 27 27 27 28 28 28 28 27 27 27 27 27 27 27 27 27 27
29 28 28 28 27 26 26 26 26 27 27 27 27 26 27 26 26 27 26 26 26 26 26 26 27 28 28 28 28 28 28 28 28 28 28 28 28 28 28 28 27 27 27
30 29 29 29 28 28 27 27 27 27 27 28 28 28 28 27 27 27 26 27 27 27 27 27 28 28 28 28 28 28 28 28 28 28 28 28 28 28 28 28 27 27 26
32 31 31 30 29 29 29 28 28 28 28 28 28 28 29 28 28 27 27 27 28 28 28 28 28 28 28 28 28 29 29 28 28 28 27 28 28 28 28 28 27 26 26
33 32 31 31 31 30 30 30 29 30 29 29 29 29 29 29 28 28 28 28 28 29 29 29 29 29 29 28 28 29 29 29 29 29 28 28 27 27 27 28 28 28 27
33 32 32 31 31 31 31 30 31 31 31 30 30 30 30 30 29 29 29 29 29 30 30 30 30 30 29 29 30 30 30 30 30 30 29 28 28 28 28 28 28 29 28
33 33 33 33 32 32 31 32 31 31 31 31 31 31 31 30 30 31 31 30 30 31 31 31 31 31 31 31 31 31 31 31 31 31 30 29 29 29 29 30 30 29 29
34 33 33 34 33 33 33 33 33 33 32 32 32 32 32 32 32 32 32 32 32 32 32 32 32 32 32 32 32 31 31 31 31 31 31 30 30 30 30 31 31 31 31
34 33 32 32 33 33 33 33 33 33 33 33 33 33 32 33 33 33 32 32 32 32 33 33 33 33 33 33 32 32 32 31 31 32 31 31 31 31 31 32 32 32 32
35 34 33 32 32 32 32 32 33 34 34 34 34 34 34 34 34 33 33 33 33 34 33 33 33 34 34 33 33 33 32 32 32 32 32 32 32 32 32 32 32 32 32
34 34 34 33 33 33 32 33 33 33 34 34 34 34 34 35 34 34 34 33 33 33 33 34 34 33 33 33 34 33 33 33 33 33 32 32 33 33 33 33 33 33 32
33 33 33 33 33 34 34 34 34 34 34 34 34 34 34 35 34 33 33 33 34 34 34 34 34 34 33 33 34 33 33 34 34 33 33 33 33 33 33 33 33 33 33
33 33 33 33 33 34 35 34 33 33 33 34 35 34 34 34 34 34 34 35 35 34 34 34 34 34 34 34 34 33 33 34 34 34 34 33 32 33 33 33 33 33 33
Wind_Direction
292 294 295 294 294 293 293 292 291 292 291 291 291 290 289 288 286 287 286 285 284 285 285 286 287 288 288 288 289 291 293 292 292 290 289 289 291 293 296 299 300 299 301
290 291 292 291 291 292 292 291 289 290 290 290 287 286 287 286 283 281 280 282 281 280 282 283 284 286 288 287 287 288 291 292 291 290 291 290 290 292 294 297 300 299 300
289 289 289 289 289 289 290 290 289 288 289 289 285 285 284 284 282 280 279 279 278 278 278 278 279 282 285 286 286 287 288 289 289 289 290 291 292 292 293 296 298 300 300
289 288 287 287 287 288 288 288 288 288 289 288 286 285 284 281 280 279 278 278 277 276 276 275 276 278 282 284 285 285 285 285 285 287 287 288 289 291 293 294 294 296 296
290 288 287 287 286 286 286 285 286 286 288 288 287 286 284 283 281 279 278 276 276 276 275 274 273 274 278 281 284 285 285 283 283 284 286 288 288 289 291 293 293 293 293
287 287 287 287 287 286 285 283 283 285 287 287 287 286 286 284 280 278 277 276 276 275 274 273 273 273 276 277 279 281 282 283 284 284 284 287 288 288 288 290 291 292 293
288 287 287 287 287 286 284 283 283 284 285 285 284 285 284 282 278 277 276 275 275 274 273 273 273 273 274 275 277 278 280 281 283 284 285 285 286 286 287 289 290 291 293
287 287 287 287 286 285 284 283 283 284 284 284 283 283 283 281 278 276 276 275 274 273 272 272 272 272 272 272 273 275 276 278 280 282 283 284 284 285 285 287 288 289 290
288 287 286 285 284 284 283 283 283 282 282 283 282 281 281 280 278 277 277 275 273 272 271 271 272 272 271 270 271 273 274 277 279 281 281 282 283 283 284 285 286 287 289
288 288 288 284 283 282 283 283 283 283 283 283 283 282 280 279 279 278 278 277 275 273 271 271 272 272 271 271 271 272 274 276 278 279 280 281 283 283 283 284 285 286 287
288 288 287 283 281 280 281 282 282 283 284 285 285 283 281 279 280 279 277 276 275 273 272 272 272 272 271 272 272 271 273 276 277 277 278 278 280 283 284 284 285 286 287
287 287 286 284 283 281 281 281 280 282 284 284 285 284 282 280 279 278 277 275 274 273 272 272 271 271 271 272 272 272 274 276 276 276 276 276 277 280 282 284 285 286 287
286 285 284 284 282 281 281 280 280 282 284 284 284 285 284 282 280 279 278 276 275 273 272 272 271 272 272 272 272 272 272 274 274 274 274 274 275 277 279 281 284 284 286
282 283 283 283 281 282 281 280 281 282 284 285 285 284 283 281 281 281 279 277 275 273 272 273 273 274 274 274 274 273 272 274 274 273 272 272 274 276 278 280 282 282 283
281 283 282 281 281 280 280 280 279 280 282 284 284 284 283 282 281 281 281 279 277 274 274 275 275 275 276 276 276 275 274 274 274 273 271 271 273 275 276 278 280 282 282
281 282 281 279 279 279 279 278 278 279 281 283 283 284 284 283 282 281 280 279 277 276 275 275 276 276 276 275 275 274 273 273 273 273 272 271 273 275 276 276 277 280 281
280 280 280 278 277 278 277 277 277 278 280 281 282 283 284 282 281 280 280 279 278 276 275 275 276 276 276 275 274 274 273 273 274 274 274 273 274 275 276 275 276 276 278
278 279 279 278 277 277 277 276 276 277 279 280 280 282 282 281 279 279 278 277 276 276 276 275 276 276 276 275 275 274 272 272 272 273 275 274 275 276 276 275 275 275 278
277 277 277 277 277 277 277 277 276 277 278 279 280 281 282 280 278 278 277 277 277 276 276 275 275 275 275 275 274 273 272 271 271 272 274 274 274 275 275 275 276 278 280
276 276 275 276 276 276 277 277 277 277 278 279 279 280 280 280 278 278 278 277 276 275 275 275 274 275 275 274 274 273 272 271 271 271 272 273 273 274 275 275 277 279 279
275 275 275 274 275 275 276 277 278 277 278 279 279 278 279 279 278 278 277 277 277 276 275 275 275 275 275 274 274 273 272 270 269 269 270 271 272 273 275 276 277 278 279
274 273 273 274 273 273 274 276 278 278 278 278 278 277 278 280 280 278 276 276 276 276 276 276 275 274 273 273 272 271 270 269 269 268 270 271 271 272 274 275 277 278 278
274 273 273 273 273 274 274 275 276 277 278 279 278 277 277 279 279 278 276 274 275 275 276 275 275 274 273 272 271 271 270 269 268 268 269 270 271 272 273 275 276 276 276
273 273 273 272 272 273 275 276 276 276 277 278 278 278 278 279 279 278 276 276 276 276 276 275 274 274 273 272 272 271 270 269 268 268 269 270 271 272 272 273 274 276 275
273 273 274 273 273 274 275 276 276 276 276 277 277 278 278 278 279 278 277 276 276 276 276 275 274 274 273 274 273 271 270 269 268 267 268 269 270 271 272 272 274 275 276
273 272 273 275 276 275 276 277 277 276 276 277 276 276 277 277 278 277 276 277 277 277 276 275 275 275 275 273 272 270 271 270 268 266 267 267 269 270 271 272 273 274 276
Height
5817 5816 5815 5814 5812 5811 5810 5809 5808 5808 5807 5806 5805 5804 5804 5803 5803 5802 5801 5801 5801 5801 5801 5801 5800 5800 5800 5799 5799 5798 5798 5797 5797 5797 5796 5796 5796 5795 5794 5794 5793 5792 5791
5812 5811 5810 5809 5808 5806 5805 5804 5803 5803 5802 5801 5800 5800 5799 5798 5798 5798 5797 5797 5796 5796 5796 5796 5796 5796 5796 5796 5795 5795 5794 5794 5793 5793 5793 5792 5792 5791 5790 5790 5789 5788 5786
5807 5806 5805 5803 5802 5801 5800 5799 5798 5797 5797 5796 5795 5795 5794 5793 5793 5792 5792 5792 5791 5791 5792 5792 5792 5792 5792 5792 5791 5791 5790 5789 5789 5789 5789 5788 5787 5787 5786 5785 5784 5783 5782
5801 5800 5799 5798 5796 5795 5794 5793 5792 5792 5791 5790 5789 5789 5788 5788 5787 5786 5786 5786 5786 5786 5786 5787 5787 5787 5787 5787 5786 5786 5785 5785 5785 5784 5784 5783 5783 5782 5781 5780 5779 5778 5777
5795 5794 5793 5791 5790 5789 5788 5787 5786 5785 5785 5784 5784 5783 5782 5782 5781 5780 5780 5780 5780 5780 5780 5781 5781 5781 5781 5781 5781 5780 5780 5780 5779 5779 5779 5778 5778 5777 5776 5775 5774 5773 5772
5788 5787 5786 5785 5784 5782 5781 5781 5780 5779 5779 5778 5777 5777 5776 5775 5774 5774 5774 5774 5774 5774 5775 5775 5775 5775 5775 5775 5775 5775 5775 5774 5774 5774 5773 5773 5772 5771 5770 5770 5769 5768 5767
5782 5780 5779 5778 5777 5776 5775 5774 5773 5773 5772 5772 5771 5770 5769 5768 5768 5767 5767 5767 5767 5767 5768 5768 5768 5769 5769 5769 5769 5768 5768 5768 5768 5768 5767 5766 5766 5765 5764 5763 5762 5761 5760
5775 5774 5772 5771 5770 5769 5768 5767 5767 5766 5765 5765 5764 5763 5763 5762 5761 5760 5760 5760 5760 5760 5761 5761 5762 5762 5762 5762 5762 5762 5762 5761 5761 5761 5760 5760 5759 5758 5758 5757 5756 5755 5753
5767 5766 5765 5764 5763 5762 5761 5760 5760 5759 5758 5758 5757 5756 5756 5755 5754 5753 5753 5753 5753 5753 5754 5754 5754 5754 5754 5754 5754 5754 5754 5754 5754 5753 5753 5752 5752 5751 5750 5750 5749 5748 5747
5760 5758 5757 5756 5755 5754 5754 5753 5752 5752 5751 5750 5749 5748 5748 5747 5747 5746 5745 5745 5746 5746 5746 5746 5746 5746 5746 5746 5746 5747 5747 5747 5746 5746 5745 5745 5744 5744 5743 5742 5742 5741 5740
5752 5751 5749 5748 5747 5746 5746 5745 5745 5744 5743 5743 5742 5741 5740 5740 5739 5738 5737 5737 5737 5738 5738 5738 5738 5738 5738 5738 5738 5738 5738 5738 5738 5738 5737 5737 5737 5736 5735 5734 5734 5733 5732
5744 5743 5741 5740 5739 5739 5738 5737 5737 5736 5736 5735 5734 5733 5732 5732 5731 5730 5729 5729 5728 5729 5729 5729 5729 5729 5729 5729 5730 5730 5730 5730 5729 5729 5729 5729 5729 5728 5728 5727 5726 5725 5724
5735 5734 5733 5732 5732 5731 5731 5730 5729 5728 5728 5727 5726 5725 5725 5724 5723 5722 5721 5720 5720 5720 5720 5721 5721 5721 5721 5721 5721 5721 5721 5721 5720 5720 5720 5721 5721 5720 5720 5719 5718 5717 5716
5727 5726 5725 5724 5724 5723 5723 5722 5722 5721 5720 5720 5718 5717 5716 5716 5715 5714 5713 5712 5712 5712 5712 5713 5713 5713 5713 5712 5712 5712 5712 5712 5712 5712 5711 5712 5712 5711 5711 5710 5709 5708 5708
5719 5718 5717 5717 5716 5716 5715 5714 5714 5713 5712 5711 5711 5710 5709 5708 5707 5706 5705 5704 5704 5704 5704 5704 5704 5704 5704 5704 5704 5703 5703 5703 5702 5702 5702 5703 5703 5703 5702 5701 5701 5700 5699
5710 5710 5709 5708 5707 5707 5707 5706 5705 5705 5704 5703 5702 5701 5700 5700 5699 5698 5697 5696 5695 5695 5696 5696 5696 5696 5696 5695 5695 5695 5694 5694 5694 5693 5693 5693 5693 5693 5693 5692 5692 5691 5690
5701 5700 5700 5699 5698 5698 5698 5697 5697 5696 5695 5695 5694 5693 5692 5691 5690 5689 5688 5688 5687 5687 5687 5687 5687 5687 5687 5686 5686 5685 5685 5685 5685 5684 5684 5684 5684 5684 5683 5683 5682 5682 5682
5691 5691 5690 5690 5689 5689 5688 5688 5688 5687 5687 5686 5685 5684 5683 5682 5681 5680 5680 5679 5679 5678 5678 5678 5678 5677 5677 5677 5677 5676 5676 5676 5676 5676 5675 5675 5675 5675 5674 5674 5673 5673 5673
5682 5681 5681 5680 5680 5679 5679 5678 5678 5678 5677 5677 5676 5675 5674 5673 5672 5671 5671 5670 5670 5669 5669 5669 5668 5668 5668 5668 5667 5667 5667 5667 5667 5667 5666 5666 5666 5666 5665 5665 5665 5664 5663
5672 5672 5671 5671 5670 5670 5669 5669 5669 5668 5668 5667 5667 5666 5665 5664 5663 5662 5661 5661 5660 5660 5659 5659 5658 5658 5658 5658 5657 5657 5657 5657 5657 5657 5657 5657 5657 5656 5656 5656 5655 5655 5654
5662 5662 5661 5661 5660 5660 5659 5659 5659 5658 5658 5657 5657 5656 5655 5654 5653 5652 5652 5651 5650 5650 5649 5648 5648 5648 5648 5647 5647 5646 5646 5646 5646 5647 5647 5647 5647 5647 5646 5646 5645 5645 5644
5652 5651 5651 5651 5650 5650 5649 5649 5648 5648 5647 5647 5646 5646 5645 5643 5643 5642 5642 5641 5640 5640 5639 5638 5637 5637 5637 5636 5636 5636 5636 5636 5636 5636 5637 5637 5637 5636 5636 5636 5635 5634 5633
5641 5641 5640 5640 5640 5640 5639 5639 5638 5638 5637 5636 5636 5635 5634 5633 5632 5631 5631 5630 5630 5629 5628 5627 5626 5626 5626 5625 5625 5625 5625 5625 5625 5625 5626 5626 5626 5625 5625 5625 5624 5623 5623
5630 5630 5630 5630 5630 5630 5629 5629 5628 5627 5627 5626 5625 5624 5624 5623 5622 5621 5620 5619 5619 5618 5617 5616 5615 5615 5614 5614 5614 5614 5614 5614 5614 5614 5614 5614 5614 5614 5614 5614 5613 5613 5612
5620 5620 5620 5619 5619 5619 5619 5618 5618 5617 5616 5615 5615 5614 5613 5612 5611 5610 5609 5608 5608 5607 5607 5606 5604 5604 5603 5603 5602 5602 5602 5602 5602 5602 5602 5603 5603 5603 5602 5602 5602 5602 5601
5610 5610 5610 5609 5609 5609 5608 5608 5607 5606 5605 5604 5604 5603 5602 5601 5600 5600 5599 5598 5597 5596 5595 5594 5593 5593 5592 5592 5591 5591 5590 5590 5590 5591 5591 5591 5591 5591 5591 5591 5591 5591 5591